Disclaimer

Please do not use the information listed here in-flight or in-navigation, as they are not provided to us by the airports but are provided by volunteers, so they might be outdated.

Search


Regions


Airport information page

Radio informations:
INFO - 123.15 MHz

Airport informations:
Latitude: 55° 40' 55.00" N
Longitude: 006° 15' 24.00" W
Elevation: 56 feet - 17 meters
Operating hours: Remarks
Operating agency: Civil government, landing fees and diplomatic clearance may be required
Timezone: UTC 0(+1DT) - Last Sunday in March to last Sunday in October
Fuel: N/A

Runway information:
08/26 - 2083 x 59 feet< - >635 x 18 meters
13/31 - 5069 x 151 feet< - >1545 x 46 meters

Recent METARs:
EGPI 221920Z AUTO 01004KT 320V040 9999 SCT046/// M01/M02 Q0996
EGPI 222020Z AUTO 35008KT 320V030 9999 RA SCT016/// 01/01 Q0997
EGPI 222050Z AUTO 04003KT 9999 UP FEW024/// 01/M00 Q0997

Airport on the map: